N0GO-2 Weather Reports


time (UTC)temp
F
wind
direction
speed
knots
gust
knots
rain 1hr
in
rain 24hr
in
rain mn
in
humidity
%
barometer
mb
20260505054803 59 2 3.5 6.1 0.01 0.01 0.01 66 1017.9
20260505054703 59 2 3.5 6.1 0.01 0.01 0.01 68 1017.9
20260505054603 59 2 4.3 6.1 0.01 0.01 0.01 68 1018.1
20260505054503 59 6 2.6 6.1 0.01 0.01 0.01 69 1017.9
20260505054402 59 6 3.5 6.1 0.01 0.01 0.01 69 1017.8
20260505054203 59 6 4.3 6.1 0.01 0.01 0.01 70 1017.7
20260505054106 59 6 4.3 6.1 0.01 0.01 0.01 70 1017.7
20260505054003 58 8 3.5 5.2 0.01 0.01 0.01 70 1017.7
20260505053903 58 5 3.5 5.2 0.01 0.01 0.01 70 1017.8
20260505053803 58 3 2.6 5.2 0.01 0.01 0.01 71 1018.0
20260505053703 58 4 3.5 5.2 0.01 0.01 0.01 70 1017.9
20260505053602 58 4 2.6 4.3 0.01 0.01 0.01 70 1017.9
20260505053502 59 5 3.5 7.0 0.01 0.01 0.01 70 1018.0
20260505053403 59 12 3.5 7.0 0.01 0.01 0.01 70 1017.9
20260505053303 59 14 3.5 7.0 0.01 0.01 0.01 70 1018.0
20260505053103 59 15 2.6 7.0 0.01 0.01 0.01 69 1018.0
20260505053002 59 12 2.6 7.0 0.01 0.01 0.01 68 1017.9
20260505052902 59 13 2.6 7.0 0.01 0.01 0.01 67 1018.0
20260505052802 59 12 2.6 7.0 0.01 0.01 0.01 67 1018.0
20260505052703 59 11 3.5 9.6 0.01 0.01 0.01 66 1017.9
20260505052605 60 10 3.5 9.6 0.01 0.01 0.01 65 1018.0
20260505052502 60 13 4.3 11.3 0.01 0.01 0.01 64 1018.1
20260505052402 60 10 4.3 11.3 0.01 0.01 0.01 64 1018.1
20260505052304 60 9 4.3 11.3 0.01 0.01 0.01 64 1018.0
20260505051903 62 7 3.5 11.3 0.01 0.01 0.01 61 1017.8
20260505051802 63 6 3.5 11.3 0.01 0.01 0.01 60 1017.8
20260505051603 64 6 7.0 11.3 0.01 0.01 0.01 52 1017.7
20260505051503 64 6 9.6 13.9 0.01 0.01 0.01 50 1017.3
20260505051403 65 5 3.5 13.9 0.00 0.00 0.00 47 1017.6
20260505051202 66 5 5.2 13.9 0.00 0.00 0.00 45 1017.6
20260505051003 66 5 7.0 14.8 0.00 0.00 0.00 43 1017.4
20260505050903 67 4 7.0 14.8 0.00 0.00 0.00 42 1017.6
20260505050802 67 3 7.0 14.8 0.00 0.00 0.00 42 1017.4
20260505050702 67 3 7.0 16.5 0.00 0.00 0.00 41 1017.6
20260505050602 68 2 7.0 16.5 0.00 0.00 0.00 40 1017.3
20260505050503 68 357 9.6 16.5 0.00 0.00 0.00 39 1017.2
20260505050403 68 357 8.7 16.5 0.00 0.00 0.00 38 1017.4
20260505050303 69 355 9.6 16.5 0.00 0.00 0.00 37 1017.4
20260505041703 70 153 1.7 8.7 0.00 0.00 0.00 66 1016.2
20260505041602 70 149 2.6 8.7 0.00 0.00 0.00 66 1016.2
20260505041502 70 144 1.7 8.7 0.00 0.00 0.00 66 1016.1
20260505041403 71 137 3.5 8.7 0.00 0.00 0.00 66 1016.2
20260505041303 71 132 3.5 8.7 0.00 0.00 0.00 66 1016.2
20260505041203 71 121 2.6 8.7 0.00 0.00 0.00 66 1016.3
20260505041103 71 114 1.7 8.7 0.00 0.00 0.00 66 1016.3
20260505041003 71 110 5.2 8.7 0.00 0.00 0.00 66 1016.3
20260505040902 71 102 5.2 8.7 0.00 0.00 0.00 66 1016.2
20260505040803 71 94 2.6 6.1 0.00 0.00 0.00 66 1016.3
20260505040703 71 101 2.6 6.1 0.00 0.00 0.00 66 1016.3
20260505040603 71 113 2.6 6.1 0.00 0.00 0.00 66 1016.4
20260505040503 71 127 2.6 6.1 0.00 0.00 0.00 66 1016.4
20260505040402 71 137 2.6 7.0 0.00 0.00 0.00 66 1016.4
20260505040103 71 162 2.6 7.0 0.00 0.00 0.00 66 1016.5
20260505035903 71 162 4.3 7.0 0.00 0.00 0.00 66 1016.3
20260505035802 71 157 1.7 7.0 0.00 0.00 0.00 66 1016.4
20260505035702 71 154 1.7 7.0 0.00 0.00 0.00 66 1016.5
20260505035603 71 155 3.5 7.0 0.00 0.00 0.00 65 1016.4
20260505035403 71 163 1.7 6.1 0.00 0.00 0.00 65 1016.4
20260505035304 71 165 1.7 6.1 0.00 0.00 0.00 65 1016.4
20260505035203 71 169 1.7 6.1 0.00 0.00 0.00 65 1016.5
20260505035103 71 170 3.5 6.1 0.00 0.00 0.00 65 1016.4
20260505035002 71 173 2.6 6.1 0.00 0.00 0.00 65 1016.4
20260505034903 71 178 3.5 6.1 0.00 0.00 0.00 65 1016.3
20260505034803 71 196 1.7 6.1 0.00 0.00 0.00 65 1016.4
20260505034703 71 195 1.7 5.2 0.00 0.00 0.00 65 1016.5
20260505034603 71 186 2.6 5.2 0.00 0.00 0.00 65 1016.4
20260505034503 71 176 3.5 5.2 0.00 0.00 0.00 65 1016.4
20260505034402 71 164 3.5 4.3 0.00 0.00 0.00 65 1016.5
20260505034103 71 150 2.6 4.3 0.00 0.00 0.00 64 1016.5
20260505034005 71 143 2.6 4.3 0.00 0.00 0.00 64 1016.4
20260505033902 71 138 3.5 7.0 0.00 0.00 0.00 64 1016.4
20260505033802 71 136 1.7 7.0 0.00 0.00 0.00 64 1016.4
20260505033703 71 144 1.7 7.0 0.00 0.00 0.00 64 1016.5
20260505033603 71 152 1.7 7.0 0.00 0.00 0.00 64 1016.5
20260505033503 71 153 1.7 7.0 0.00 0.00 0.00 64 1016.5
20260505033403 71 153 2.6 7.0 0.00 0.00 0.00 64 1016.5
20260505033303 71 153 3.5 7.0 0.00 0.00 0.00 64 1016.5
20260505033202 71 152 2.6 7.0 0.00 0.00 0.00 63 1016.6
20260505033103 71 155 1.7 7.0 0.00 0.00 0.00 63 1016.5
20260505033003 71 162 5.2 7.0 0.00 0.00 0.00 63 1016.4
20260505032903 71 164 2.6 4.3 0.00 0.00 0.00 63 1016.5
20260505032803 71 154 1.7 3.5 0.00 0.00 0.00 63 1016.5
20260505032702 71 150 1.7 3.5 0.00 0.00 0.00 63 1016.5
20260505032602 71 148 1.7 2.6 0.00 0.00 0.00 62 1016.5
20260505032505 71 150 1.7 2.6 0.00 0.00 0.00 62 1016.5
20260505032402 71 151 1.7 2.6 0.00 0.00 0.00 62 1016.5
20260505032103 72 149 1.7 2.6 0.00 0.00 0.00 62 1016.4
20260505032003 72 145 1.7 2.6 0.00 0.00 0.00 62 1016.4
20260505031702 72 150 1.7 2.6 0.00 0.00 0.00 62 1016.4
20260505031603 72 151 1.7 2.6 0.00 0.00 0.00 61 1016.3
20260505031503 72 154 1.7 2.6 0.00 0.00 0.00 61 1016.3
20260505031403 72 158 1.7 2.6 0.00 0.00 0.00 61 1016.2
20260505031103 72 168 1.7 2.6 0.00 0.00 0.00 61 1016.3
20260505031006 72 172 1.7 2.6 0.00 0.00 0.00 61 1016.2
20260505030902 72 177 1.7 2.6 0.00 0.00 0.00 61 1016.3
20260505030802 72 181 1.7 2.6 0.00 0.00 0.00 61 1016.3
20260505030702 72 181 1.7 2.6 0.00 0.00 0.00 61 1016.3
20260505030603 72 178 1.7 2.6 0.00 0.00 0.00 60 1016.2
20260505030503 72 178 1.7 2.6 0.00 0.00 0.00 60 1016.1
20260505030403 72 181 1.7 2.6 0.00 0.00 0.00 60 1016.3
20260505030303 72 181 1.7 2.6 0.00 0.00 0.00 60 1016.0
20260505030203 72 181 1.7 2.6 0.00 0.00 0.00 60 1016.1
20260505030103 72 181 1.7 2.6 0.00 0.00 0.00 60 1016.2
20260505030003 72 181 1.7 2.6 0.00 0.00 0.00 60 1016.2
20260505025803 72 182 1.7 1.7 0.00 0.00 0.00 60 1016.2
20260505025703 72 182 1.7 1.7 0.00 0.00 0.00 60 1016.2
20260505025602 72 183 1.7 1.7 0.00 0.00 0.00 60 1016.1
20260505025505 72 187 1.7 1.7 0.00 0.00 0.00 59 1016.2
20260505025402 72 185 0.9 1.7 0.00 0.00 0.00 59 1016.2
20260505025304 72 183 0.9 1.7 0.00 0.00 0.00 59 1016.2
20260505025203 72 177 0.9 1.7 0.00 0.00 0.00 59 1016.1
20260505025103 72 177 1.7 2.6 0.00 0.00 0.00 59 1016.1
20260505024903 72 169 1.7 2.6 0.00 0.00 0.00 58 1016.2
20260505024802 72 168 0.9 2.6 0.00 0.00 0.00 58 1016.1
20260505024702 72 168 0.9 2.6 0.00 0.00 0.00 58 1016.1
20260505024603 72 167 1.7 2.6 0.00 0.00 0.00 57 1016.0
20260505024303 72 169 1.7 2.6 0.00 0.00 0.00 53 1016.0
20260505024203 72 173 1.7 2.6 0.00 0.00 0.00 53 1015.9
20260505024102 72 174 1.7 3.5 0.00 0.00 0.00 53 1015.9
20260505024002 72 170 1.7 3.5 0.00 0.00 0.00 53 1016.0
20260505023903 72 172 1.7 3.5 0.00 0.00 0.00 53 1016.0
20260505023803 72 170 0.9 3.5 0.00 0.00 0.00 53 1015.9
20260505023703 72 169 1.7 3.5 0.00 0.00 0.00 53 1015.9
20260505023603 72 170 1.7 3.5 0.00 0.00 0.00 52 1015.8
20260505023503 72 171 1.7 3.5 0.00 0.00 0.00 52 1015.8
20260505023402 72 171 1.7 3.5 0.00 0.00 0.00 52 1015.9
20260505023302 72 165 0.9 3.5 0.00 0.00 0.00 52 1015.8
20260505023203 72 164 1.7 3.5 0.00 0.00 0.00 52 1015.8
20260505023103 72 161 1.7 3.5 0.00 0.00 0.00 52 1015.8
20260505023003 72 168 1.7 1.7 0.00 0.00 0.00 51 1015.9
20260505022902 72 173 1.7 1.7 0.00 0.00 0.00 51 1015.8
20260505022802 72 178 1.7 1.7 0.00 0.00 0.00 51 1015.8
20260505022705 72 181 0.9 1.7 0.00 0.00 0.00 51 1015.7
20260505022602 72 181 0.9 1.7 0.00 0.00 0.00 51 1015.6
20260505022505 72 181 0.9 1.7 0.00 0.00 0.00 50 1015.6
20260505022402 72 181 0.9 1.7 0.00 0.00 0.00 50 1015.7
20260505022203 72 181 0.9 1.7 0.00 0.00 0.00 50 1015.6
20260505022103 72 181 0.9 1.7 0.00 0.00 0.00 50 1015.5
20260505022003 72 181 0.0 1.7 0.00 0.00 0.00 50 1015.5
20260505021902 72 181 0.0 1.7 0.00 0.00 0.00 50 1015.6
20260505021702 73 181 0.9 1.7 0.00 0.00 0.00 50 1015.5
20260505021603 73 181 0.9 1.7 0.00 0.00 0.00 50 1015.6
20260505021403 73 181 0.9 1.7 0.00 0.00 0.00 50 1015.5
20260505021303 73 181 0.9 1.7 0.00 0.00 0.00 50 1015.5
20260505021203 73 181 0.9 1.7 0.00 0.00 0.00 50 1015.4
20260505021102 73 181 0.9 1.7 0.00 0.00 0.00 50 1015.4
20260505020906 73 181 0.9 1.7 0.00 0.00 0.00 50 1015.5
20260505020803 73 181 0.9 1.7 0.00 0.00 0.00 50 1015.6
20260505020703 73 181 0.9 1.7 0.00 0.00 0.00 50 1015.6
20260505020603 73 181 0.9 1.7 0.00 0.00 0.00 50 1015.5
20260505020502 73 181 0.0 1.7 0.00 0.00 0.00 50 1015.5
20260505020402 73 181 0.9 1.7 0.00 0.00 0.00 50 1015.4
20260505020303 73 181 0.9 1.7 0.00 0.00 0.00 50 1015.4
20260505020203 73 181 0.9 1.7 0.00 0.00 0.00 49 1015.5
20260505020003 73 181 0.9 1.7 0.00 0.00 0.00 49 1015.3
20260505015902 73 181 0.9 1.7 0.00 0.00 0.00 49 1015.4
20260505015803 73 181 0.9 1.7 0.00 0.00 0.00 49 1015.3
20260505015703 73 181 0.9 1.7 0.00 0.00 0.00 49 1015.4
20260505015603 73 181 0.9 1.7 0.00 0.00 0.00 49 1015.4
20260505015503 73 181 0.0 1.7 0.00 0.00 0.00 49 1015.3
20260505015406 73 181 0.9 1.7 0.00 0.00 0.00 49 1015.3
20260505015303 73 181 0.9 1.7 0.00 0.00 0.00 49 1015.4
20260505015203 73 181 0.0 1.7 0.00 0.00 0.00 49 1015.3
20260505015103 73 181 0.9 1.7 0.00 0.00 0.00 49 1015.3
20260505015002 73 181 1.7 1.7 0.00 0.00 0.00 48 1015.3
20260505014803 73 181 0.9 1.7 0.00 0.00 0.00 48 1015.3
20260505014703 73 181 0.0 1.7 0.00 0.00 0.00 48 1015.2
20260505014603 73 181 0.0 1.7 0.00 0.00 0.00 48 1015.3
20260505014502 73 181 0.0 1.7 0.00 0.00 0.00 48 1015.2
20260505014302 73 181 0.0 1.7 0.00 0.00 0.00 48 1015.1
20260505014203 73 181 0.0 1.7 0.00 0.00 0.00 47 1015.1
20260505014003 74 181 0.9 1.7 0.00 0.00 0.00 47 1015.1
20260505013906 74 0 0.0 0.0 0.00 0.00 0.00 47 1015.2
20260505013803 74 0 0.0 0.0 0.00 0.00 0.00 47 1015.1
20260505013703 74 0 0.0 0.0 0.00 0.00 0.00 47 1015.1
20260505013602 74 0 0.0 0.0 0.00 0.00 0.00 46 1015.1
20260505013503 74 0 0.0 0.0 0.00 0.00 0.00 46 1015.2
20260505013403 74 0 0.0 0.0 0.00 0.00 0.00 46 1015.1
20260505013303 74 0 0.0 0.0 0.00 0.00 0.00 46 1015.2
20260505013203 74 0 0.0 0.0 0.00 0.00 0.00 46 1015.0
20260505013103 74 0 0.0 0.0 0.00 0.00 0.00 46 1015.0
20260505013003 74 0 0.0 0.0 0.00 0.00 0.00 46 1015.1
20260505012902 74 0 0.0 0.0 0.00 0.00 0.00 46 1015.1
20260505012802 74 0 0.0 0.0 0.00 0.00 0.00 46 1015.0
20260505012703 74 0 0.0 0.0 0.00 0.00 0.00 46 1015.0
20260505012603 74 0 0.0 0.0 0.00 0.00 0.00 46 1015.0
20260505012503 74 0 0.0 0.0 0.00 0.00 0.00 45 1015.0
20260505012405 75 0 0.0 0.0 0.00 0.00 0.00 46 1015.0
20260505012304 75 0 0.0 0.0 0.00 0.00 0.00 46 1015.0
20260505012203 75 0 0.0 0.0 0.00 0.00 0.00 46 1015.0
20260505012104 75 0 0.0 0.0 0.00 0.00 0.00 45 1015.1
20260505011903 75 0 0.0 0.0 0.00 0.00 0.00 45 1015.1
20260505011803 75 0 0.0 0.0 0.00 0.00 0.00 45 1014.9
20260505011703 75 0 0.0 0.0 0.00 0.00 0.00 45 1014.9
20260505011602 75 0 0.0 0.0 0.00 0.00 0.00 45 1014.8
20260505011403 75 90 0.0 0.9 0.00 0.00 0.00 44 1014.9
20260505011303 76 90 0.0 0.9 0.00 0.00 0.00 44 1014.9
20260505011203 76 90 0.0 0.9 0.00 0.00 0.00 44 1014.9
20260505010906 76 90 0.0 0.9 0.00 0.00 0.00 43 1014.7
20260505010803 76 90 0.0 0.9 0.00 0.00 0.00 43 1014.7
20260505010702 76 90 0.0 0.9 0.00 0.00 0.00 43 1014.9
20260505010602 76 90 0.0 0.9 0.00 0.00 0.00 43 1014.7
20260505010503 76 90 0.0 0.9 0.00 0.00 0.00 43 1014.7
20260505010403 76 90 0.0 0.9 0.00 0.00 0.00 43 1014.6
20260505010303 76 90 0.0 0.9 0.00 0.00 0.00 43 1014.7
20260505010203 76 0 0.0 0.0 0.00 0.00 0.00 43 1014.6
20260505010002 76 90 0.0 0.9 0.00 0.00 0.00 43 1014.6
20260505005903 76 90 0.0 0.9 0.00 0.00 0.00 43 1014.6
20260505005803 76 90 0.0 0.9 0.00 0.00 0.00 43 1014.6
20260505005703 77 90 0.0 0.9 0.00 0.00 0.00 43 1014.6
20260505005603 77 90 0.0 1.7 0.00 0.00 0.00 43 1014.7
20260505005503 77 90 0.0 1.7 0.00 0.00 0.00 43 1014.7
20260505005402 77 90 0.0 1.7 0.00 0.00 0.00 42 1014.7
20260505005203 77 90 0.0 1.7 0.00 0.00 0.00 42 1014.6
20260505005003 77 86 0.0 1.7 0.00 0.00 0.00 42 1014.6
20260505004803 77 76 0.9 1.7 0.00 0.00 0.00 42 1014.5
20260505004702 77 71 0.0 1.7 0.00 0.00 0.00 42 1014.5
20260505004602 77 67 0.0 1.7 0.00 0.00 0.00 42 1014.4
20260505004503 78 64 0.9 1.7 0.00 0.00 0.00 42 1014.5
20260505004403 78 60 0.9 1.7 0.00 0.00 0.00 42 1014.4
20260505004203 78 52 0.0 1.7 0.00 0.00 0.00 42 1014.5
20260505004102 78 50 1.7 1.7 0.00 0.00 0.00 42 1014.4
20260505003806 78 45 0.9 1.7 0.00 0.00 0.00 42 1014.5
20260505003703 78 45 1.7 1.7 0.00 0.00 0.00 42 1014.5
20260505003603 78 45 0.9 1.7 0.00 0.00 0.00 42 1014.4
20260505003503 78 46 0.9 1.7 0.00 0.00 0.00 42 1014.4
20260505003403 78 51 0.9 1.7 0.00 0.00 0.00 42 1014.4
20260505003203 78 62 1.7 1.7 0.00 0.00 0.00 42 1014.4
20260505003103 78 68 0.9 2.6 0.00 0.00 0.00 42 1014.4
20260505003002 78 79 0.9 2.6 0.00 0.00 0.00 42 1014.4
20260505002902 78 89 0.9 2.6 0.00 0.00 0.00 42 1014.3
20260505002803 78 97 0.9 2.6 0.00 0.00 0.00 42 1014.4
20260505002703 78 107 0.9 2.6 0.00 0.00 0.00 42 1014.3
20260505002503 79 132 1.7 2.6 0.00 0.00 0.00 42 1014.2
20260505002403 79 141 0.9 2.6 0.00 0.00 0.00 42 1014.2
20260505002203 79 162 1.7 2.6 0.00 0.00 0.00 42 1014.3
20260505002103 79 171 1.7 2.6 0.00 0.00 0.00 42 1014.4
20260505002003 79 177 1.7 1.7 0.00 0.00 0.00 42 1014.2
20260505001903 79 188 1.7 1.7 0.00 0.00 0.00 42 1014.2
20260505001703 79 185 1.7 1.7 0.00 0.00 0.00 42 1014.3
20260505001603 79 177 1.7 2.6 0.00 0.00 0.00 42 1014.4
20260505001403 79 190 0.9 2.6 0.00 0.00 0.00 41 1014.3
20260505001203 79 179 1.7 2.6 0.00 0.00 0.00 41 1014.4
20260505001103 79 174 0.9 2.6 0.00 0.00 0.00 41 1014.3
20260505001002 79 172 1.7 2.6 0.00 0.00 0.00 41 1014.5
20260505000903 79 164 0.9 2.6 0.00 0.00 0.00 41 1014.3
20260505000805 79 165 1.7 2.6 0.00 0.00 0.00 41 1014.3
20260505000702 79 169 1.7 2.6 0.00 0.00 0.00 41 1014.3
20260505000602 79 179 1.7 3.5 0.00 0.00 0.00 41 1014.3
20260505000503 79 179 1.7 3.5 0.00 0.00 0.00 41 1014.2
20260505000405 79 176 1.7 3.5 0.00 0.00 0.00 41 1014.3
20260505000303 79 176 1.7 3.5 0.00 0.00 0.00 41 1014.4
20260505000204 79 182 1.7 3.5 0.00 0.00 0.00 41 1014.4
20260505000002 79 194 1.7 3.5 0.00 0.00 0.00 41 1014.3
20260504235903 79 200 1.7 3.5 0.00 0.00 0.00 41 1014.3
20260504235803 79 197 0.9 3.5 0.00 0.00 0.00 41 1014.3
20260504235703 79 191 1.7 3.5 0.00 0.00 0.00 41 1014.4
20260504235603 79 178 1.7 3.5 0.00 0.00 0.00 41 1014.4
20260504235503 79 172 0.9 3.5 0.00 0.00 0.00 41 1014.4
20260504235403 79 173 0.9 3.5 0.00 0.00 0.00 41 1014.4
20260504235306 79 171 1.7 3.5 0.00 0.00 0.00 41 1014.4
20260504235203 79 175 1.7 3.5 0.00 0.00 0.00 41 1014.4
20260504235103 79 187 0.0 4.3 0.00 0.00 0.00 41 1014.4
20260504235003 79 193 1.7 4.3 0.00 0.00 0.00 41 1014.4
20260504234802 79 192 1.7 4.3 0.00 0.00 0.00 41 1014.4
20260504234703 79 201 1.7 4.3 0.00 0.00 0.00 41 1014.3
20260504234603 79 208 2.6 4.3 0.00 0.00 0.00 41 1014.3
20260504234503 79 210 1.7 4.3 0.00 0.00 0.00 41 1014.4
20260504234303 79 207 1.7 4.3 0.00 0.00 0.00 40 1014.5
20260504234203 79 198 2.6 4.3 0.00 0.00 0.00 41 1014.2
20260504234103 79 179 2.6 4.3 0.00 0.00 0.00 41 1014.3
20260504234003 79 178 1.7 3.5 0.00 0.00 0.00 41 1014.3
20260504233903 79 185 0.9 3.5 0.00 0.00 0.00 41 1014.4
20260504233803 80 189 1.7 3.5 0.00 0.00 0.00 41 1014.5
20260504233603 80 186 1.7 3.5 0.00 0.00 0.00 41 1014.4
20260504233503 80 185 1.7 3.5 0.00 0.00 0.00 40 1014.4
20260504233403 80 190 0.9 3.5 0.00 0.00 0.00 40 1014.4
20260504233302 80 194 1.7 3.5 0.00 0.00 0.00 40 1014.3
20260504233202 80 202 1.7 3.5 0.00 0.00 0.00 40 1014.4
20260504233103 80 208 1.7 4.3 0.00 0.00 0.00 40 1014.4
20260504233003 80 204 2.6 4.3 0.00 0.00 0.00 40 1014.3
20260504232903 80 209 1.7 4.3 0.00 0.00 0.00 40 1014.3
20260504232703 80 209 1.7 4.3 0.00 0.00 0.00 40 1014.3
20260504232503 80 215 2.6 4.3 0.00 0.00 0.00 40 1014.3
20260504232402 80 215 2.6 4.3 0.00 0.00 0.00 40 1014.5
20260504232205 80 203 1.7 4.3 0.00 0.00 0.00 40 1014.4
20260504232102 80 203 2.6 4.3 0.00 0.00 0.00 40 1014.4
20260504232003 80 206 2.6 4.3 0.00 0.00 0.00 40 1014.4
20260504231903 80 199 2.6 4.3 0.00 0.00 0.00 40 1014.5
20260504231803 80 204 1.7 4.3 0.00 0.00 0.00 40 1014.5
20260504231703 80 216 1.7 4.3 0.00 0.00 0.00 40 1014.3
20260504231602 80 229 1.7 4.3 0.00 0.00 0.00 40 1014.4
20260504231503 80 237 1.7 4.3 0.00 0.00 0.00 40 1014.4
20260504231303 80 233 2.6 4.3 0.00 0.00 0.00 40 1014.4
20260504231203 80 228 1.7 4.3 0.00 0.00 0.00 40 1014.4
20260504231103 80 220 1.7 4.3 0.00 0.00 0.00 40 1014.4
20260504230902 81 203 3.5 4.3 0.00 0.00 0.00 40 1014.3
20260504230803 81 198 1.7 4.3 0.00 0.00 0.00 40 1014.4
20260504230705 81 189 2.6 4.3 0.00 0.00 0.00 40 1014.4
20260504230602 81 185 2.6 4.3 0.00 0.00 0.00 40 1014.4
20260504230503 81 185 2.6 4.3 0.00 0.00 0.00 40 1014.5
20260504230403 81 187 3.5 4.3 0.00 0.00 0.00 40 1014.4
20260504230303 81 188 3.5 4.3 0.00 0.00 0.00 40 1014.4
20260504230203 81 191 3.5 4.3 0.00 0.00 0.00 40 1014.3
20260504230003 81 197 3.5 4.3 0.00 0.00 0.00 40 1014.5
20260504225903 81 202 3.5 4.3 0.00 0.00 0.00 40 1014.5
20260504225803 81 207 2.6 4.3 0.00 0.00 0.00 40 1014.4
20260504225703 81 208 2.6 4.3 0.00 0.00 0.00 40 1014.4
20260504225603 81 209 2.6 4.3 0.00 0.00 0.00 40 1014.4
20260504225502 81 212 1.7 4.3 0.00 0.00 0.00 40 1014.5
20260504225402 81 212 1.7 4.3 0.00 0.00 0.00 40 1014.4
20260504225304 81 211 3.5 4.3 0.00 0.00 0.00 39 1014.4
20260504225003 81 216 1.7 3.5 0.00 0.00 0.00 40 1014.4
20260504224903 81 209 2.6 3.5 0.00 0.00 0.00 40 1014.4
20260504224803 81 203 2.6 3.5 0.00 0.00 0.00 40 1014.4
20260504224603 81 190 1.7 3.5 0.00 0.00 0.00 40 1014.5
20260504224502 81 184 1.7 3.5 0.00 0.00 0.00 40 1014.5
20260504224203 80 189 0.9 3.5 0.00 0.00 0.00 40 1014.3
20260504224103 80 194 0.9 3.5 0.00 0.00 0.00 40 1014.4
20260504224003 80 203 1.7 4.3 0.00 0.00 0.00 41 1014.4
20260504223902 80 202 1.7 4.3 0.00 0.00 0.00 40 1014.3
20260504223802 80 209 0.9 4.3 0.00 0.00 0.00 40 1014.2
20260504223705 80 214 1.7 4.3 0.00 0.00 0.00 40 1014.3
20260504223602 80 221 1.7 4.3 0.00 0.00 0.00 40 1014.3
20260504223403 80 230 2.6 4.3 0.00 0.00 0.00 40 1014.3
20260504223303 80 240 1.7 4.3 0.00 0.00 0.00 40 1014.3
20260504223203 80 242 1.7 4.3 0.00 0.00 0.00 40 1014.3
20260504223102 80 234 0.9 4.3 0.00 0.00 0.00 39 1014.4
20260504223003 80 226 1.7 3.5 0.00 0.00 0.00 39 1014.3
20260504222803 80 220 1.7 3.5 0.00 0.00 0.00 39 1014.4
20260504222603 80 201 0.9 3.5 0.00 0.00 0.00 40 1014.5
20260504222502 80 195 0.9 3.5 0.00 0.00 0.00 40 1014.5
20260504222402 80 178 2.6 3.5 0.00 0.00 0.00 39 1014.5
20260504222205 80 169 2.6 3.5 0.00 0.00 0.00 39 1014.5
20260504222103 80 168 2.6 3.5 0.00 0.00 0.00 39 1014.5
20260504222003 80 162 2.6 3.5 0.00 0.00 0.00 39 1014.5
20260504221903 80 161 2.6 3.5 0.00 0.00 0.00 39 1014.5
20260504221803 80 155 2.6 3.5 0.00 0.00 0.00 39 1014.5
20260504221702 80 161 1.7 3.5 0.00 0.00 0.00 40 1014.6
20260504221502 80 182 0.9 3.5 0.00 0.00 0.00 40 1014.5
20260504221403 80 190 1.7 3.5 0.00 0.00 0.00 40 1014.4
20260504221203 80 179 1.7 4.3 0.00 0.00 0.00 39 1014.4
20260504221103 80 177 1.7 4.3 0.00 0.00 0.00 38 1014.6
20260504221003 80 178 1.7 4.3 0.00 0.00 0.00 38 1014.5
20260504220903 80 182 2.6 4.3 0.00 0.00 0.00 37 1014.5
20260504220804 80 190 2.6 4.3 0.00 0.00 0.00 37 1014.5
20260504220703 80 191 2.6 4.3 0.00 0.00 0.00 37 1014.5
20260504220603 80 191 3.5 4.3 0.00 0.00 0.00 37 1014.4
20260504220403 80 191 1.7 4.3 0.00 0.00 0.00 36 1014.5
20260504220303 80 210 3.5 4.3 0.00 0.00 0.00 36 1014.5
20260504220202 80 223 3.5 4.3 0.00 0.00 0.00 36 1014.5
20260504220003 80 218 1.7 3.5 0.00 0.00 0.00 36 1014.6
20260504215903 80 217 1.7 3.5 0.00 0.00 0.00 36 1014.6
20260504215803 80 199 2.6 3.5 0.00 0.00 0.00 36 1014.6
20260504215703 80 199 1.7 4.3 0.00 0.00 0.00 37 1014.6
20260504215402 80 215 2.6 6.1 0.00 0.00 0.00 36 1014.7
20260504215304 80 204 2.6 6.1 0.00 0.00 0.00 36 1014.4
20260504215203 80 184 2.6 6.1 0.00 0.00 0.00 36 1014.7
20260504215103 80 173 2.6 6.1 0.00 0.00 0.00 36 1014.6
20260504215003 80 183 3.5 6.1 0.00 0.00 0.00 36 1014.7
20260504214902 80 195 3.5 6.1 0.00 0.00 0.00 36 1014.7
20260504214802 80 209 3.5 6.1 0.00 0.00 0.00 36 1014.7
20260504214603 80 187 1.7 7.0 0.00 0.00 0.00 37 1014.8
20260504214503 80 187 2.6 7.0 0.00 0.00 0.00 37 1014.8
20260504214403 80 174 5.2 7.0 0.00 0.00 0.00 38 1014.8
20260504214303 80 174 3.5 7.0 0.00 0.00 0.00 39 1014.8
20260504214203 80 174 1.7 7.0 0.00 0.00 0.00 39 1014.7
20260504214103 80 173 1.7 7.0 0.00 0.00 0.00 38 1014.9
20260504214003 80 172 1.7 7.0 0.00 0.00 0.00 38 1014.8
20260504213903 80 170 2.6 7.0 0.00 0.00 0.00 38 1014.7
20260504213803 80 167 4.3 7.0 0.00 0.00 0.00 39 1014.8
20260504213603 80 177 2.6 4.3 0.00 0.00 0.00 40 1014.8
20260504213503 80 177 1.7 4.3 0.00 0.00 0.00 40 1014.8
20260504213403 80 186 3.5 4.3 0.00 0.00 0.00 40 1014.8
20260504213303 80 193 1.7 4.3 0.00 0.00 0.00 40 1014.9
20260504213203 80 196 1.7 4.3 0.00 0.00 0.00 40 1014.9
20260504213103 80 205 2.6 4.3 0.00 0.00 0.00 40 1014.8
20260504212803 80 216 2.6 4.3 0.00 0.00 0.00 39 1014.7
20260504212703 80 209 2.6 6.1 0.00 0.00 0.00 39 1014.9
20260504212503 80 207 1.7 6.1 0.00 0.00 0.00 38 1014.7
20260504212403 80 197 1.7 6.1 0.00 0.00 0.00 38 1014.9
20260504212304 80 190 3.5 6.1 0.00 0.00 0.00 38 1014.9
20260504212205 80 197 1.7 7.0 0.00 0.00 0.00 38 1014.8
20260504212002 80 196 1.7 7.0 0.00 0.00 0.00 38 1014.8
20260504211903 80 191 1.7 7.0 0.00 0.00 0.00 38 1015.0
20260504211803 80 182 4.3 7.0 0.00 0.00 0.00 37 1014.9
20260504211703 80 184 2.6 7.0 0.00 0.00 0.00 37 1014.9
20260504211603 80 181 1.7 9.6 0.00 0.00 0.00 37 1014.8
20260504211503 80 177 2.6 9.6 0.00 0.00 0.00 37 1014.8
20260504211403 80 176 2.6 9.6 0.00 0.00 0.00 37 1014.8
20260504211303 80 179 3.5 9.6 0.00 0.00 0.00 36 1014.7
20260504211203 80 182 4.3 9.6 0.00 0.00 0.00 36 1014.8
20260504211103 80 187 4.3 9.6 0.00 0.00 0.00 37 1014.9
20260504211003 81 190 3.5 9.6 0.00 0.00 0.00 37 1014.9
20260504210802 81 207 3.5 9.6 0.00 0.00 0.00 37 1014.8
20260504210606 81 205 6.1 9.6 0.00 0.00 0.00 38 1014.9
20260504210503 81 221 2.6 7.0 0.00 0.00 0.00 38 1014.8
20260504210403 81 228 6.1 7.0 0.00 0.00 0.00 37 1014.9
20260504210303 81 226 6.1 7.0 0.00 0.00 0.00 37 1014.9
20260504210004 82 179 2.6 7.0 0.00 0.00 0.00 33 1014.8
20260504205903 82 159 2.6 7.0 0.00 0.00 0.00 33 1014.8
20260504205803 82 151 2.6 7.0 0.00 0.00 0.00 33 1015.0
20260504205703 83 164 2.6 7.0 0.00 0.00 0.00 33 1015.0
20260504205603 83 166 4.3 7.0 0.00 0.00 0.00 33 1014.9
20260504205503 83 168 1.7 6.1 0.00 0.00 0.00 34 1015.0
20260504205304 83 155 3.5 6.1 0.00 0.00 0.00 34 1014.9
20260504205203 83 158 3.5 6.1 0.00 0.00 0.00 34 1015.0
20260504205105 82 176 3.5 6.1 0.00 0.00 0.00 35 1014.9
20260504205002 82 195 1.7 8.7 0.00 0.00 0.00 34 1015.0
20260504204903 82 205 0.9 8.7 0.00 0.00 0.00 34 1015.0
20260504204803 82 210 1.7 8.7 0.00 0.00 0.00 34 1014.9
20260504204703 82 216 1.7 8.7 0.00 0.00 0.00 34 1015.0
20260504204603 82 218 3.5 8.7 0.00 0.00 0.00 33 1015.1
20260504204402 82 188 3.5 8.7 0.00 0.00 0.00 33 1015.1
20260504204303 82 174 3.5 8.7 0.00 0.00 0.00 33 1015.1
20260504204203 82 160 2.6 8.7 0.00 0.00 0.00 33 1015.2
20260504204003 83 145 5.2 8.7 0.00 0.00 0.00 33 1015.1
20260504203903 83 138 2.6 7.8 0.00 0.00 0.00 33 1015.1
20260504203802 83 146 2.6 7.8 0.00 0.00 0.00 33 1015.1
20260504203703 83 144 2.6 7.8 0.00 0.00 0.00 33 1014.9
20260504203402 83 160 3.5 7.8 0.00 0.00 0.00 32 1015.0
20260504203303 83 166 3.5 7.8 0.00 0.00 0.00 32 1015.1
20260504203203 83 174 3.5 7.8 0.00 0.00 0.00 32 1015.0
20260504203103 83 183 2.6 7.0 0.00 0.00 0.00 32 1015.0
20260504203003 83 193 3.5 7.0 0.00 0.00 0.00 31 1015.0
20260504202903 83 194 3.5 7.0 0.00 0.00 0.00 31 1015.0
20260504202803 83 192 3.5 7.0 0.00 0.00 0.00 31 1015.1
20260504202703 83 195 3.5 7.0 0.00 0.00 0.00 31 1015.0
20260504202603 83 192 4.3 7.0 0.00 0.00 0.00 32 1015.1
20260504202503 83 185 2.6 7.0 0.00 0.00 0.00 32 1015.1
20260504202403 83 186 2.6 7.0 0.00 0.00 0.00 32 1015.0
20260504202304 83 184 3.5 7.0 0.00 0.00 0.00 32 1015.0
20260504202202 83 191 3.5 6.1 0.00 0.00 0.00 32 1015.2
20260504202105 84 189 3.5 6.1 0.00 0.00 0.00 32 1015.1
20260504201902 84 183 3.5 5.2 0.00 0.00 0.00 32 1015.0
20260504201803 84 173 1.7 8.7 0.00 0.00 0.00 32 1015.2
20260504201703 84 167 3.5 8.7 0.00 0.00 0.00 32 1015.1
20260504201603 84 166 2.6 8.7 0.00 0.00 0.00 33 1015.1
20260504201503 84 178 1.7 8.7 0.00 0.00 0.00 33 1015.0
20260504201403 84 184 2.6 8.7 0.00 0.00 0.00 33 1015.0
20260504201302 84 192 3.5 8.7 0.00 0.00 0.00 33 1015.1
20260504201203 83 181 2.6 8.7 0.00 0.00 0.00 33 1015.0
20260504201103 83 173 2.6 8.7 0.00 0.00 0.00 33 1015.1
20260504201003 83 164 2.6 8.7 0.00 0.00 0.00 33 1015.0
20260504200903 83 157 3.5 8.7 0.00 0.00 0.00 33 1015.1
20260504200802 83 160 7.0 8.7 0.00 0.00 0.00 33 1015.1
20260504200703 83 167 4.3 8.7 0.00 0.00 0.00 33 1015.1
20260504200603 83 172 2.6 7.0 0.00 0.00 0.00 33 1015.2
20260504200403 83 171 4.3 7.0 0.00 0.00 0.00 33 1015.0
20260504200203 83 167 4.3 9.6 0.00 0.00 0.00 35 1015.2
20260504200003 83 196 4.3 9.6 0.00 0.00 0.00 35 1015.2
20260504195803 83 207 3.5 9.6 0.00 0.00 0.00 34 1015.3
20260504195703 83 198 3.5 9.6 0.00 0.00 0.00 34 1015.2
20260504195603 83 193 3.5 9.6 0.00 0.00 0.00 34 1015.1
20260504195502 83 184 3.5 9.6 0.00 0.00 0.00 34 1015.3
20260504195404 83 177 2.6 9.6 0.00 0.00 0.00 34 1015.2
20260504195304 83 184 7.0 9.6 0.00 0.00 0.00 34 1015.3
20260504195203 83 185 7.0 9.6 0.00 0.00 0.00 34 1015.4
20260504195103 83 181 3.5 10.4 0.00 0.00 0.00 34 1015.2
20260504195006 83 174 3.5 10.4 0.00 0.00 0.00 34 1015.1
20260504194903 83 160 3.5 10.4 0.00 0.00 0.00 34 1015.3
20260504194803 83 154 3.5 10.4 0.00 0.00 0.00 34 1015.3
20260504194702 83 161 2.6 10.4 0.00 0.00 0.00 34 1015.2
20260504194603 83 167 3.5 10.4 0.00 0.00 0.00 34 1015.1
20260504194503 83 177 4.3 10.4 0.00 0.00 0.00 34 1015.1
20260504194403 83 176 5.2 10.4 0.00 0.00 0.00 34 1015.3
20260504194303 83 175 3.5 10.4 0.00 0.00 0.00 34 1015.3
20260504194203 83 171 3.5 10.4 0.00 0.00 0.00 35 1015.3
20260504193902 83 205 7.0 10.4 0.00 0.00 0.00 34 1015.2
20260504193803 83 208 5.2 7.8 0.00 0.00 0.00 34 1015.3
20260504193703 83 186 4.3 7.8 0.00 0.00 0.00 34 1015.3
20260504193603 83 178 4.3 7.8 0.00 0.00 0.00 34 1015.2
20260504193506 83 167 4.3 7.8 0.00 0.00 0.00 34 1015.3
20260504193403 83 170 3.5 7.8 0.00 0.00 0.00 34 1015.2
20260504193203 83 176 2.6 7.8 0.00 0.00 0.00 33 1015.3
20260504193103 83 176 2.6 7.8 0.00 0.00 0.00 33 1015.3
20260504193003 83 173 3.5 7.8 0.00 0.00 0.00 34 1015.2
20260504192905 83 173 5.2 7.8 0.00 0.00 0.00 34 1015.1
20260504192803 83 183 4.3 7.8 0.00 0.00 0.00 33 1015.3
20260504192703 83 185 3.5 7.8 0.00 0.00 0.00 33 1015.3
20260504192603 83 179 4.3 7.8 0.00 0.00 0.00 32 1015.2
20260504192503 83 178 4.3 7.8 0.00 0.00 0.00 32 1015.2
20260504192403 83 176 1.7 7.8 0.00 0.00 0.00 32 1015.2
20260504192304 83 174 3.5 7.8 0.00 0.00 0.00 32 1015.2
20260504192203 83 178 4.3 7.8 0.00 0.00 0.00 32 1015.3
20260504192103 83 181 7.0 7.8 0.00 0.00 0.00 32 1015.3
20260504192003 83 174 4.3 7.0 0.00 0.00 0.00 32 1015.2
20260504191903 83 173 4.3 7.8 0.00 0.00 0.00 32 1015.3
20260504191803 82 171 1.7 7.8 0.00 0.00 0.00 33 1015.4
20260504191704 82 182 3.5 9.6 0.00 0.00 0.00 33 1015.3
20260504191603 82 192 3.5 9.6 0.00 0.00 0.00 33 1015.4
20260504191503 82 193 2.6 9.6 0.00 0.00 0.00 32 1015.4
20260504191303 82 187 3.5 9.6 0.00 0.00 0.00 32 1015.4
20260504191203 82 179 4.3 9.6 0.00 0.00 0.00 32 1015.3
20260504191102 82 169 2.6 9.6 0.00 0.00 0.00 32 1015.3
20260504191002 81 168 5.2 9.6 0.00 0.00 0.00 36 1015.3
20260504190903 81 164 3.5 9.6 0.00 0.00 0.00 36 1015.3
20260504190803 81 163 3.5 9.6 0.00 0.00 0.00 35 1015.4
20260504190703 81 154 4.3 9.6 0.00 0.00 0.00 35 1015.4
20260504190502 82 163 3.5 4.3 0.00 0.00 0.00 33 1015.5
20260504190403 82 169 3.5 4.3 0.00 0.00 0.00 33 1015.5
20260504190303 82 184 3.5 8.7 0.00 0.00 0.00 33 1015.5
20260504190203 82 178 3.5 8.7 0.00 0.00 0.00 33 1015.5
20260504185803 82 201 2.6 8.7 0.00 0.00 0.00 33 1015.5
20260504185602 82 146 2.6 8.7 0.00 0.00 0.00 32 1015.6
20260504185403 82 168 2.6 8.7 0.00 0.00 0.00 33 1015.5
20260504185203 82 171 2.6 7.0 0.00 0.00 0.00 34 1015.5
20260504185103 82 198 1.7 9.6 0.00 0.00 0.00 34 1015.5
20260504185003 82 208 3.5 9.6 0.00 0.00 0.00 33 1015.5
20260504184903 82 215 3.5 9.6 0.00 0.00 0.00 33 1015.5
20260504184803 82 216 6.1 9.6 0.00 0.00 0.00 32 1015.5
20260504184703 82 217 3.5 9.6 0.00 0.00 0.00 33 1015.5
20260504184603 82 215 3.5 9.6 0.00 0.00 0.00 33 1015.5
20260504184502 82 209 2.6 9.6 0.00 0.00 0.00 33 1015.5
20260504184403 82 212 3.5 9.6 0.00 0.00 0.00 33 1015.7
20260504184306 82 209 4.3 9.6 0.00 0.00 0.00 33 1015.5
20260504184203 82 212 7.0 9.6 0.00 0.00 0.00 33 1015.5
20260504184103 83 188 5.2 9.6 0.00 0.00 0.00 34 1015.5
20260504184003 83 169 3.5 5.2 0.00 0.00 0.00 33 1015.4
20260504183902 83 168 2.6 5.2 0.00 0.00 0.00 33 1015.4
20260504183802 82 171 3.5 5.2 0.00 0.00 0.00 34 1015.5
20260504183703 82 173 2.6 5.2 0.00 0.00 0.00 34 1015.5
20260504183603 82 176 0.9 5.2 0.00 0.00 0.00 34 1015.5
20260504183503 82 184 1.7 5.2 0.00 0.00 0.00 33 1015.5
20260504183403 82 179 1.7 5.2 0.00 0.00 0.00 33 1015.7
20260504183303 81 178 1.7 5.2 0.00 0.00 0.00 36 1015.6
20260504183203 81 183 3.5 5.2 0.00 0.00 0.00 36 1015.7
20260504183103 82 193 3.5 5.2 0.00 0.00 0.00 32 1015.7
20260504183003 82 206 3.5 5.2 0.00 0.00 0.00 32 1015.5
20260504182903 82 209 2.6 3.5 0.00 0.00 0.00 32 1015.6
20260504182806 82 220 2.6 5.2 0.00 0.00 0.00 32 1015.7
20260504182703 81 221 2.6 5.2 0.00 0.00 0.00 35 1015.7
20260504182503 81 206 2.6 5.2 0.00 0.00 0.00 35 1015.6
20260504182403 81 212 1.7 5.2 0.00 0.00 0.00 35 1015.6
20260504182304 81 208 2.6 7.0 0.00 0.00 0.00 36 1015.7
20260504182203 81 207 1.7 7.0 0.00 0.00 0.00 36 1015.6
20260504182103 81 203 1.7 7.0 0.00 0.00 0.00 37 1015.8
20260504182003 81 204 1.7 7.0 0.00 0.00 0.00 37 1015.7
20260504181903 81 211 1.7 7.0 0.00 0.00 0.00 37 1015.7
20260504181803 81 199 3.5 7.0 0.00 0.00 0.00 36 1015.7
20260504181703 81 192 3.5 7.0 0.00 0.00 0.00 37 1015.6
20260504181603 81 191 3.5 7.0 0.00 0.00 0.00 37 1015.7
20260504181503 81 183 3.5 7.0 0.00 0.00 0.00 37 1015.7
20260504181306 81 186 3.5 6.1 0.00 0.00 0.00 38 1015.7
20260504181203 81 189 0.9 6.1 0.00 0.00 0.00 38 1015.6
20260504181103 81 200 1.7 6.1 0.00 0.00 0.00 38 1015.7
20260504181003 80 209 3.5 6.1 0.00 0.00 0.00 38 1015.7
20260504180902 80 200 3.5 6.1 0.00 0.00 0.00 37 1015.7
20260504180703 80 259 3.5 6.1 0.00 0.00 0.00 38 1015.7
20260504180603 80 278 3.5 6.1 0.00 0.00 0.00 37 1015.8
20260504180503 80 277 4.3 6.1 0.00 0.00 0.00 37 1015.8
20260504180403 80 284 5.2 6.1 0.00 0.00 0.00 38 1015.8
20260504180303 80 277 2.6 5.2 0.00 0.00 0.00 37 1015.9
20260504180203 80 256 3.5 4.3 0.00 0.00 0.00 36 1015.8
20260504180103 80 238 3.5 4.3 0.00 0.00 0.00 36 1015.9
20260504180003 80 214 3.5 7.8 0.00 0.00 0.00 36 1016.0
20260504175806 80 207 1.7 7.8 0.00 0.00 0.00 36 1016.0
20260504175703 80 195 2.6 7.8 0.00 0.00 0.00 36 1015.9
20260504175603 80 190 1.7 7.8 0.00 0.00 0.00 36 1016.0
20260504175503 80 190 2.6 7.8 0.00 0.00 0.00 36 1015.9
20260504175402 80 187 3.5 7.8 0.00 0.00 0.00 36 1015.9
20260504175304 80 192 3.5 7.8 0.00 0.00 0.00 36 1015.9
20260504175204 80 193 3.5 7.8 0.00 0.00 0.00 35 1015.9
20260504175103 80 188 3.5 7.8 0.00 0.00 0.00 35 1015.9
20260504175003 80 199 3.5 7.0 0.00 0.00 0.00 38 1016.0
20260504174902 80 213 1.7 7.0 0.00 0.00 0.00 38 1016.0
20260504174803 80 229 3.5 7.0 0.00 0.00 0.00 39 1015.9
20260504174703 80 233 2.6 7.0 0.00 0.00 0.00 38 1016.0
20260504174603 80 238 1.7 5.2 0.00 0.00 0.00 38 1015.9
20260504174503 80 236 0.9 5.2 0.00 0.00 0.00 38 1016.0
20260504174403 80 235 2.6 5.2 0.00 0.00 0.00 38 1016.0
20260504174305 80 215 3.5 7.0 0.00 0.00 0.00 37 1016.0
20260504174202 80 196 0.9 7.0 0.00 0.00 0.00 36 1015.9
20260504174003 79 168 2.6 7.0 0.00 0.00 0.00 36 1015.9
20260504173803 80 160 3.5 7.0 0.00 0.00 0.00 36 1016.0
20260504173603 80 166 3.5 7.8 0.00 0.00 0.00 37 1016.1
20260504173503 80 170 1.7 7.8 0.00 0.00 0.00 37 1016.0
20260504173402 79 170 4.3 7.8 0.00 0.00 0.00 37 1016.0
20260504173303 79 172 3.5 7.8 0.00 0.00 0.00 37 1016.0
20260504173203 79 176 3.5 7.8 0.00 0.00 0.00 37 1016.0
20260504173103 79 179 3.5 7.8 0.00 0.00 0.00 38 1016.0
20260504173003 78 184 3.5 7.8 0.00 0.00 0.00 37 1016.0
20260504172903 78 187 3.5 7.8 0.00 0.00 0.00 37 1016.1
20260504172806 78 192 1.7 7.8 0.00 0.00 0.00 36 1016.1
20260504172703 78 192 3.5 7.8 0.00 0.00 0.00 36 1016.2
20260504172603 79 195 5.2 7.8 0.00 0.00 0.00 37 1016.2
20260504172503 79 192 4.3 7.0 0.00 0.00 0.00 38 1016.1
20260504172403 79 177 4.3 7.0 0.00 0.00 0.00 37 1016.2
20260504172203 79 189 3.5 6.1 0.00 0.00 0.00 37 1016.1
20260504172103 79 187 3.5 6.1 0.00 0.00 0.00 37 1016.1
20260504171903 79 226 1.7 6.1 0.00 0.00 0.00 38 1016.2
20260504171803 79 200 0.9 6.1 0.00 0.00 0.00 39 1016.1
20260504171703 78 220 1.7 6.1 0.00 0.00 0.00 38 1016.1
20260504171603 78 224 3.5 6.1 0.00 0.00 0.00 37 1016.2
20260504171503 78 233 3.5 6.1 0.00 0.00 0.00 37 1016.2
20260504171305 78 232 1.7 6.1 0.00 0.00 0.00 37 1016.3
20260504171202 78 237 1.7 6.1 0.00 0.00 0.00 37 1016.1
20260504171003 78 239 3.5 6.1 0.00 0.00 0.00 36 1016.2
20260504170903 78 231 3.5 6.1 0.00 0.00 0.00 37 1016.2
20260504170803 78 244 1.7 6.1 0.00 0.00 0.00 37 1016.2
20260504170703 78 237 3.5 6.1 0.00 0.00 0.00 38 1016.2
20260504170603 78 243 2.6 6.1 0.00 0.00 0.00 38 1016.2
20260504170403 78 231 2.6 7.0 0.00 0.00 0.00 39 1016.2
20260504170303 78 230 3.5 7.0 0.00 0.00 0.00 39 1016.1
20260504170203 78 231 3.5 7.0 0.00 0.00 0.00 39 1016.1
20260504160403 75 190 1.7 8.7 0.00 0.00 0.00 40 1016.2
20260504160302 75 192 2.6 8.7 0.00 0.00 0.00 40 1016.2
20260504160203 75 197 2.6 7.0 0.00 0.00 0.00 40 1016.2
20260504151103 72 181 2.6 7.0 0.00 0.00 0.00 46 1016.5
20260504150903 71 159 3.5 7.0 0.00 0.00 0.00 47 1016.5
20260504150802 71 167 3.5 7.0 0.00 0.00 0.00 47 1016.4
20260504150702 71 155 3.5 7.0 0.00 0.00 0.00 47 1016.4
20260504150603 71 155 2.6 7.0 0.00 0.00 0.00 48 1016.5
20260504150503 71 158 3.5 7.0 0.00 0.00 0.00 47 1016.5
20260504150403 70 161 2.6 7.0 0.00 0.00 0.00 47 1016.4
20260504150303 70 150 3.5 7.0 0.00 0.00 0.00 47 1016.4
20260504150203 70 179 6.1 7.0 0.00 0.00 0.00 47 1016.5
20260504141303 67 220 5.2 11.3 0.00 0.00 0.00 50 1016.6
20260504141202 67 206 2.6 11.3 0.00 0.00 0.00 50 1016.7
20260504141102 67 198 2.6 11.3 0.00 0.00 0.00 50 1016.7
20260504141003 67 188 3.5 11.3 0.00 0.00 0.00 50 1016.6
20260504140803 67 168 7.0 11.3 0.00 0.00 0.00 50 1016.6
20260504140703 67 170 2.6 7.0 0.00 0.00 0.00 50 1016.6
20260504140603 67 171 2.6 7.0 0.00 0.00 0.00 50 1016.7
20260504140303 67 182 2.6 7.0 0.00 0.00 0.00 50 1016.8
20260504140203 67 187 3.5 6.1 0.00 0.00 0.00 50 1016.7
20260504130803 66 166 6.1 7.0 0.00 0.00 0.00 48 1016.4
20260504130703 66 169 3.5 7.0 0.00 0.00 0.00 48 1016.4
20260504130403 66 175 3.5 7.0 0.00 0.00 0.00 48 1016.4
20260504130303 66 175 2.6 7.0 0.00 0.00 0.00 48 1016.4
20260504130203 66 179 2.6 7.0 0.00 0.00 0.00 48 1016.4
20260504120203 64 190 1.7 7.0 0.00 0.00 0.00 50 1016.8
20260504110703 64 167 0.9 4.3 0.00 0.00 0.00 48 1016.7
20260504110403 64 160 1.7 4.3 0.00 0.00 0.00 48 1016.7
20260504110303 64 166 1.7 4.3 0.00 0.00 0.00 48 1016.6
20260504110203 64 168 3.5 4.3 0.00 0.00 0.00 48 1016.7
20260504110103 64 170 3.5 3.5 0.00 0.00 0.00 48 1016.8
20260504100602 66 130 1.7 7.0 0.00 0.00 0.00 44 1017.2
20260504100502 66 127 1.7 7.0 0.00 0.00 0.00 44 1017.1
20260504100403 66 134 1.7 7.0 0.00 0.00 0.00 44 1017.1
20260504100203 66 153 1.7 7.0 0.00 0.00 0.00 44 1017.1
20260504082003 66 197 6.1 7.8 0.00 0.00 0.00 44 1017.6
20260504081903 66 195 4.3 7.8 0.00 0.00 0.00 44 1017.7
20260504081802 66 184 4.3 7.8 0.00 0.00 0.00 44 1017.7
20260504081703 66 177 2.6 7.8 0.00 0.00 0.00 44 1017.8
20260504081603 66 177 2.6 7.8 0.00 0.00 0.00 44 1017.9
20260504081503 66 187 3.5 7.8 0.00 0.00 0.00 44 1017.8
20260504081303 66 199 3.5 7.8 0.00 0.00 0.00 45 1017.7
20260504081103 66 222 4.3 7.8 0.00 0.00 0.00 45 1017.7
20260504081003 66 235 2.6 4.3 0.00 0.00 0.00 45 1017.8
20260504080903 66 241 3.5 4.3 0.00 0.00 0.00 45 1017.9
20260504080803 66 241 3.5 4.3 0.00 0.00 0.00 45 1017.8
20260504080703 66 244 2.6 7.0 0.00 0.00 0.00 45 1017.9
20260504080602 65 244 2.6 7.0 0.00 0.00 0.00 45 1017.8
20260504080503 65 235 2.6 7.0 0.00 0.00 0.00 45 1018.0
20260504080403 65 224 2.6 7.0 0.00 0.00 0.00 45 1017.9
20260504080303 65 212 2.6 7.0 0.00 0.00 0.00 45 1017.9
20260504080203 65 201 2.6 7.0 0.00 0.00 0.00 45 1018.0
20260504070403 64 165 1.7 2.6 0.00 0.00 0.00 46 1018.8
20260504070303 64 164 1.7 2.6 0.00 0.00 0.00 46 1018.9
20260504070203 65 166 1.7 2.6 0.00 0.00 0.00 45 1018.8
20260504070103 65 167 1.7 2.6 0.00 0.00 0.00 45 1018.8